Air Resources Laboratory banner image
Air Resources Laboratory web site National Oceanic and Atmospheric Administration (NOAA)

wi roundup


Office: GRB

ASUS43 KGRB 110510
RWRGRB

NORTH-CENTRAL AND NORTHEAST WISCONSIN REGIONAL WEATHER ROUNDUP
NATIONAL WEATHER SERVICE GREEN BAY WI
1200 AM CDT THU AUG 11 2022

WIZ005-009-010>012-018-019-110600-
NORTH CENTRAL WISCONSIN

CITY           SKY/WX    TMP DP  RH WIND       PRES   REMARKS
IRONWOOD       CLEAR     52  52 100 CALM      30.23R
MANITOWISH WTR CLEAR     51  51 100 CALM      30.22R
ARBOR VITAE    CLEAR     55  53  93 CALM      30.22R
EAGLE RIVER    CLEAR     52  52 100 CALM      30.21R
LAND O LAKES   CLEAR     49  49  99 CALM      30.23R
RHINELANDER    CLEAR     53  50  89 CALM      30.21R
PHILLIPS       CLEAR     54  54 100 CALM      30.21S
ANTIGO         CLEAR     54  50  88 CALM      30.20S
TOMAHAWK       CLEAR     50  48  92 CALM      30.21R
MERRILL        CLEAR     53  52  97 CALM      30.19S
$$

WIZ013-073-110600-
NORTHEAST WISCONSIN

CITY           SKY/WX    TMP DP  RH WIND       PRES   REMARKS
IRON MOUNTAIN  CLEAR     53  50  89 CALM      30.17R
MARINETTE      CLEAR     59  58  96 CALM      30.17R
$$

WIZ017-030-035>037-045-110600-
CENTRAL WISCONSIN

CITY           SKY/WX    TMP DP  RH WIND       PRES   REMARKS
MEDFORD        CLEAR     55  55 100 CALM      30.21R
WAUSAU         CLEAR     64  50  60 CALM      30.18R
MOSINEE        CLEAR     61  50  67 N5        30.21R
MARSHFIELD     PTCLDY    64  52  64 NE6       30.20R
WISC RAPIDS    PTCLDY    68  52  56 NE5       30.19R
STEVENS POINT  PTCLDY    64  50  60 CALM      30.19R
WAUPACA        PTCLDY    66  54  64 CALM      30.18R
SHAWANO        CLEAR     64  56  74 CALM      30.17S
CLINTONVILLE   CLOUDY    64  54  71 CALM      30.19R
WAUTOMA        PTCLDY    68  53  58 NE6       30.18R
$$

WIZ038-039-048-051-110600-
FOX VALLEY

CITY           SKY/WX    TMP DP  RH WIND       PRES   REMARKS
NWS GREEN BAY  PTCLDY    67  60  78 NE6       30.16R
APPLETON       MOCLDY    64  55  72 NE3       30.16R
OSHKOSH        PTCLDY    71  59  65 NE12G18   30.16R
FOND DU LAC    PTCLDY    71  58  63 NE12      30.16R
$$

WIZ022-050-052-110600-
EAST CENTRAL WISCONSIN

CITY           SKY/WX    TMP DP  RH WIND       PRES   REMARKS
EPHRAIM        FAIR      63  51  66 CALM      30.16R
WASHINGTON ISL FAIR      53  53 100 CALM      30.15S
STURGEON BAY   CLEAR     66  54  65 NE6       30.16S
MANITOWOC      PTCLDY    68  58  70 NE6       30.16R
SHEBOYGAN      PTCLDY    68  62  81 NE12      30.15R
$$

LMZ563-521-522-541>543-110600-
LAKESHORE

STATION/POSITION TIME  TEMP    WIND        PRES    VSBY  WAVE
                       AIR SEA DIR/SP/G                  HT/PER
                 (UTC) (F)     (DEG/KT/KT) (MB)    (MI)  (FT/S)
SHEBOYGAN LKSHOR 0500   68      20/ 14/ 16 1020.6R
KEWAUNEE LKSHORE 0430           30/  5/  8 1019.5R
NORTHPORT PIER   0400   63      CALM  /  1 1021.3
N MID LAKE BUOY  0450   68 68  350/  6/  6 1020.5R         1/ 4
CHAMBERS ISLAND  0430   60      CALM  /  1   N/A
GREEN BAY WEST   0430   71      70/  6/  9 1019.9R
MENOMINEE LKSHOR 0430   70 73   70/  3/  4 1020.1R
$$


ASUS43 KGRB 110511
RWRGRB

NORTH-CENTRAL AND NORTHEAST WISCONSIN REGIONAL WEATHER ROUNDUP
NATIONAL WEATHER SERVICE GREEN BAY WI
1200 AM CDT THU AUG 11 2022

WIZ005-009-010>012-018-019-110600-
NORTH CENTRAL WISCONSIN

CITY           SKY/WX    TMP DP  RH WIND       PRES   REMARKS
IRONWOOD       CLEAR     52  52 100 CALM      30.23R
MANITOWISH WTR CLEAR     51  51 100 CALM      30.22R
ARBOR VITAE    CLEAR     55  53  93 CALM      30.22R
EAGLE RIVER    CLEAR     52  52 100 CALM      30.21R
LAND O LAKES   CLEAR     49  49  99 CALM      30.23R
RHINELANDER    CLEAR     53  50  89 CALM      30.21R
PHILLIPS       CLEAR     54  54 100 CALM      30.21S
ANTIGO         CLEAR     54  50  88 CALM      30.20S
TOMAHAWK       CLEAR     50  48  92 CALM      30.21R
MERRILL        CLEAR     53  52  97 CALM      30.19S
$$

WIZ013-073-110600-
NORTHEAST WISCONSIN

CITY           SKY/WX    TMP DP  RH WIND       PRES   REMARKS
IRON MOUNTAIN  CLEAR     53  50  89 CALM      30.17R
MARINETTE      CLEAR     59  58  96 CALM      30.17R
$$

WIZ017-030-035>037-045-110600-
CENTRAL WISCONSIN

CITY           SKY/WX    TMP DP  RH WIND       PRES   REMARKS
MEDFORD        CLEAR     55  55 100 CALM      30.21R
WAUSAU         CLEAR     64  50  60 CALM      30.18R
MOSINEE        CLEAR     61  50  67 N5        30.21R
MARSHFIELD     CLEAR     64  52  64 NE6       30.20R
WISC RAPIDS    PTCLDY    68  52  56 NE5       30.19R
STEVENS POINT  PTCLDY    64  50  60 CALM      30.19R
WAUPACA        PTCLDY    66  54  64 CALM      30.18R
SHAWANO        CLEAR     64  56  74 CALM      30.17S
CLINTONVILLE   CLOUDY    64  54  71 CALM      30.19R
WAUTOMA        PTCLDY    68  53  58 NE6       30.18R
$$

WIZ038-039-048-051-110600-
FOX VALLEY

CITY           SKY/WX    TMP DP  RH WIND       PRES   REMARKS
NWS GREEN BAY  PTCLDY    67  60  78 NE6       30.16R
APPLETON       MOCLDY    64  55  72 NE3       30.16R
OSHKOSH        PTCLDY    71  59  65 NE12G18   30.16R
FOND DU LAC    PTCLDY    71  58  63 NE12      30.16R
$$

WIZ022-050-052-110600-
EAST CENTRAL WISCONSIN

CITY           SKY/WX    TMP DP  RH WIND       PRES   REMARKS
EPHRAIM        FAIR      63  51  66 CALM      30.16R
WASHINGTON ISL FAIR      53  53 100 CALM      30.15S
STURGEON BAY   CLEAR     66  54  65 NE6       30.16S
MANITOWOC      PTCLDY    68  58  70 NE6       30.16R
SHEBOYGAN      PTCLDY    68  62  81 NE12      30.15R
$$

LMZ563-521-522-541>543-110600-
LAKESHORE

STATION/POSITION TIME  TEMP    WIND        PRES    VSBY  WAVE
                       AIR SEA DIR/SP/G                  HT/PER
                 (UTC) (F)     (DEG/KT/KT) (MB)    (MI)  (FT/S)
SHEBOYGAN LKSHOR 0500   68      20/ 14/ 16 1020.6R
KEWAUNEE LKSHORE 0430           30/  5/  8 1019.5R
NORTHPORT PIER   0400   63      CALM  /  1 1021.3
N MID LAKE BUOY  0450   68 68  350/  6/  6 1020.5R         1/ 4
CHAMBERS ISLAND  0430   60      CALM  /  1   N/A
GREEN BAY WEST   0430   71      70/  6/  9 1019.9R
MENOMINEE LKSHOR 0430   70 73   70/  3/  4 1020.1R
$$


ASUS43 KGRB 110559
RWRGRB

NORTH-CENTRAL AND NORTHEAST WISCONSIN REGIONAL WEATHER ROUNDUP
NATIONAL WEATHER SERVICE GREEN BAY WI
100 AM CDT THU AUG 11 2022

WIZ005-009-010>012-018-019-110700-
NORTH CENTRAL WISCONSIN

CITY           SKY/WX    TMP DP  RH WIND       PRES   REMARKS
IRONWOOD       CLEAR     51  50  96 CALM      30.24R FOG
MANITOWISH WTR CLEAR     48  48 100 CALM      30.23S
ARBOR VITAE    CLEAR     53  52  94 N3        30.22S
EAGLE RIVER    CLEAR     51  51 100 CALM      30.22S
LAND O LAKES   CLEAR     49  48  99 CALM      30.24S
RHINELANDER    CLEAR     53  50  89 CALM      30.22R
PHILLIPS       CLEAR     52  52 100 CALM      30.22S
ANTIGO         CLEAR     52  51  95 CALM      30.21R
TOMAHAWK       CLEAR     48  47  93 CALM      30.23R
MERRILL        CLEAR     51  50  98 CALM      30.20R
$$

WIZ013-073-110700-
NORTHEAST WISCONSIN

CITY           SKY/WX    TMP DP  RH WIND       PRES   REMARKS
IRON MOUNTAIN  CLEAR     52  49  89 N3        30.18R
MARINETTE      CLEAR     57  57 100 CALM      30.18R
$$

WIZ017-030-035>037-045-110700-
CENTRAL WISCONSIN

CITY           SKY/WX    TMP DP  RH WIND       PRES   REMARKS
MEDFORD        CLEAR     53  53 100 CALM      30.21S
WAUSAU         CLEAR     62  52  69 CALM      30.19R
MOSINEE        CLEAR     59  50  72 CALM      30.21S
MARSHFIELD     PTCLDY    63  51  65 NE3       30.20S
WISC RAPIDS    PTCLDY    61  54  77 CALM      30.21R
STEVENS POINT  PTCLDY    61  51  69 CALM      30.21R
WAUPACA        PTCLDY    62  56  80 CALM      30.19S
SHAWANO        CLEAR     59  57  94 CALM      30.18R
CLINTONVILLE   PTCLDY    60  55  82 CALM      30.20R
WAUTOMA        PTCLDY    65  54  67 NE5       30.19R
$$

WIZ038-039-048-051-110700-
FOX VALLEY

CITY           SKY/WX    TMP DP  RH WIND       PRES   REMARKS
NWS GREEN BAY  MOCLDY    63  59  87 CALM      30.17R
APPLETON       PTCLDY    64  57  77 E3        30.17R
OSHKOSH        PTCLDY    70  56  61 E10       30.17R
FOND DU LAC    PTCLDY    69  55  60 NE9       30.18R
$$

WIZ022-050-052-110700-
EAST CENTRAL WISCONSIN

CITY           SKY/WX    TMP DP  RH WIND       PRES   REMARKS
EPHRAIM        FAIR      63  52  67 N3        30.16S
WASHINGTON ISL MOCLDY    55  55 100 CALM      30.16S
STURGEON BAY   CLEAR     61  55  81 CALM      30.18R
MANITOWOC      PTCLDY    65  59  81 N3        30.17R
SHEBOYGAN      PTCLDY    68  60  75 NE10      30.16R
$$

LMZ563-521-522-541>543-110700-
LAKESHORE

STATION/POSITION TIME  TEMP    WIND        PRES    VSBY  WAVE
                       AIR SEA DIR/SP/G                  HT/PER
                 (UTC) (F)     (DEG/KT/KT) (MB)    (MI)  (FT/S)
SHEBOYGAN LKSHOR 0500   68      20/ 14/ 16 1020.6R
KEWAUNEE LKSHORE 0524           20/  2/  3 1019.7
NORTHPORT PIER   0500   62     270/  2/  3 1021.7
N MID LAKE BUOY  0540   68 68  350/  8/ 10 1020.4F
CHAMBERS ISLAND  0530   58      50/  1/  2   N/A
GREEN BAY WEST   0524   70     100/  3/  6 1020.1
MENOMINEE LKSHOR 0524   68 73   CALM  /  2 1020.1
$$




Office: MKX ASUS43 KMKX 110511 RWRWI WISCONSIN REGIONAL WEATHER ROUNDUP NATIONAL WEATHER SERVICE MILWAUKEE/SULLIVAN WI 1200 AM CDT THU AUG 11 2022 NOTE: "FAIR" INDICATES FEW OR NO CLOUDS BELOW 12,000 FEET WITH NO SIGNIFICANT WEATHER AND/OR OBSTRUCTIONS TO VISIBILITY. WIZ001-002-006>008-014>016-023>028-110600- NORTHWEST WISCONSIN CITY SKY/WX TMP DP RH WIND PRES REMARKS SUPERIOR ARPT PTCLDY 62 49 63 N3 30.22R ASHLAND CLEAR 59 51 75 N7 30.22R HAYWARD CLEAR 53 51 93 CALM 30.23R SIREN CLEAR 58 53 83 N3 30.22S CUMBERLAND NOT AVBL RICE LAKE N/A 58 57 96 CALM 30.22S CHETEK CLEAR 60 57 89 CALM 30.21R LADYSMITH CLEAR 57 57 100 CALM 30.23R EAU CLAIRE CLEAR 60 54 80 CALM 30.19R MENOMONIE CLEAR 66 57 74 CALM 30.20R NEW RICHMOND CLEAR 59 54 83 CALM 30.21S OSCEOLA CLEAR 62 60 91 CALM 30.24R $$ WIZ003>005-009-010-017-018-110600- NORTH CENTRAL WISCONSIN CITY SKY/WX TMP DP RH WIND PRES REMARKS MANITOWISH WTR CLEAR 51 51 100 CALM 30.22R ARBOR VITAE CLEAR 55 53 93 CALM 30.22R WOODRUFF CLEAR 55 53 93 CALM 30.22R RHINELANDER CLEAR 53 50 89 CALM 30.21R EAGLE RIVER CLEAR 52 52 100 CALM 30.21R LAND O LAKES CLEAR 49 49 99 CALM 30.23R PHILLIPS CLEAR 54 54 100 CALM 30.21S TOMAHAWK CLEAR 50 48 92 CALM 30.21R MEDFORD CLEAR 55 55 100 CALM 30.21R MERRILL CLEAR 53 52 97 CALM 30.19S $$ WIZ029-030-035-036-043>047-110600- CENTRAL WISCONSIN CITY SKY/WX TMP DP RH WIND PRES REMARKS WAUSAU CLEAR 64 50 60 CALM 30.18R MOSINEE CLEAR 61 50 67 N5 30.21R MARSHFIELD CLEAR 64 52 64 NE6 30.20R STEVENS POINT PTCLDY 64 50 60 CALM 30.19R WAUPACA PTCLDY 66 54 64 CALM 30.18R WAUTOMA PTCLDY 68 53 58 NE6 30.18R WISC RAPIDS PTCLDY 68 52 56 NE5 30.19R CAMP DOUGLAS PTCLDY 64 59 82 CALM 30.16R $$ WIZ011>013-019>022-031-037>040-048>050-110600- NORTHEAST WISCONSIN CITY SKY/WX TMP DP RH WIND PRES REMARKS ANTIGO CLEAR 54 50 88 CALM 30.20S SHAWANO CLEAR 64 56 74 CALM 30.17S OCONTO NOT AVBL STURGEON BAY CLEAR 66 54 65 NE6 30.16S GREEN BAY PTCLDY 67 60 78 NE6 30.16R MANITOWOC PTCLDY 68 58 70 NE6 30.16R APPLETON MOCLDY 64 55 72 NE3 30.16R CLINTONVILLE CLOUDY 64 54 71 CALM 30.19R OSHKOSH PTCLDY 71 59 65 NE12G18 30.16R $$ WIZ032>034-041-042-053>061-110600- SOUTHWEST WISCONSIN CITY SKY/WX TMP DP RH WIND PRES REMARKS LA CROSSE PTCLDY 72 59 63 N7 30.16R SPARTA MOCLDY 67 58 71 N3 30.19R VIROQUA CLOUDY 69 67 91 NE6 30.18S BOSCOBEL MOCLDY 70 69 97 CALM 30.15R PRAIRIE DU CHI MOCLDY 71 67 87 CALM 30.14R PLATTEVILLE CLEAR 71 69 95 W5 30.16S $$ WIZ056-057-062-063-064-067-068-110600- SOUTH CENTRAL WISCONSIN CITY SKY/WX TMP DP RH WIND PRES REMARKS REEDSBURG CLOUDY 72 62 71 NE5 30.16R BARABOO/DELLS CLOUDY 68 58 70 NE8 30.16R LONE ROCK PTCLDY 69 68 96 CALM 30.14R MINERAL POINT NOT AVBL MADISON MOCLDY 73 66 78 N6 30.13R MIDDLETON MOCLDY 71 67 88 W3 30.14S WATERTOWN CLEAR 71 65 81 N5 30.12R MONROE CLEAR 72 65 78 W10 30.14R JANESVILLE CLEAR 70 66 88 CALM 30.13R $$ WIZ051-052-058>065-066-070>072-110600- SOUTHEAST WISCONSIN CITY SKY/WX TMP DP RH WIND PRES REMARKS MILWAUKEE MOCLDY 77 65 66 N7 30.10R WAUKESHA CLEAR 70 63 78 N5 30.13R MILWAUKEE/TIMM PTCLDY 72 63 73 N8 30.12R RACINE CLOUDY 75 65 70 W7 30.12R KENOSHA PTCLDY 72 66 81 W7 30.11S FOND DU LAC PTCLDY 71 58 63 NE12 30.16R SHEBOYGAN PTCLDY 68 62 81 NE12 30.15R WEST BEND PTCLDY 68 63 83 NE10 30.15R JUNEAU MOCLDY 70 62 77 N9 30.15R $$ LSZ147-162-110600- LAKE SUPERIOR STATION/POSITION TIME TEMP WIND PRES WAVE AIR SEA DIR/SP/G HT/PER (UTC) (F) (DEG/KT/KT) (MB) (FT/S) W MID LAKE BUOY 0450 54 350/ 6/ 8 1022.8R DEVILS ISLAND 0400 64 30/ 7/ 9 1022.7R PORT WING 0440 59 160/ 2/ 3 1022.7R SAXON HARBOR 0430 61 90/ 3/ 5 1022.0R $$ LMZ867-665-643>646-110600- LAKE MICHIGAN STATION/POSITION TIME TEMP WIND PRES WAVE AIR SEA DIR/SP/G HT/PER (UTC) (F) (DEG/KT/KT) (MB) (FT/S) CHAMBERS ISLAND 0430 60 CALM / 1 N/A N MID LAKE BUOY 0450 68 68 350/ 6/ 6 1020.5R 1/ 4 NORTHPORT PIER 0400 63 CALM / 1 1021.3 KEWAUNEE LAKESHO 0424 30/ 5/ 8 1019.4 SHEBOYGAN LAKESH 0500 68 20/ 14/ 16 1020.6R PORT WASHINGTON 0440 71 20/ 7/ 16 1021.0R ATWATER BUOY 0415 71 290/ 10/ 12 1021.2 0 MILWAUKEE LAKESH 0430 76 320/ 5/ 6 N/A S MID LAKE BUOY 0440 73 72 250/ 8/ 10 1018.9R KENOSHA LAKESH 0500 76 270/ 7/ 10 1019.0 $$ TC - TEMPERATURE IN CELSIUS VSB - VISIBILITY IN STATUTE MILES WCI - WIND CHILL INDEX HX - HEAT INDEX ASUS43 KMKX 110520 RWRWI WISCONSIN REGIONAL WEATHER ROUNDUP NATIONAL WEATHER SERVICE MILWAUKEE/SULLIVAN WI 1200 AM CDT THU AUG 11 2022 NOTE: "FAIR" INDICATES FEW OR NO CLOUDS BELOW 12,000 FEET WITH NO SIGNIFICANT WEATHER AND/OR OBSTRUCTIONS TO VISIBILITY. WIZ001-002-006>008-014>016-023>028-110600- NORTHWEST WISCONSIN CITY SKY/WX TMP DP RH WIND PRES REMARKS SUPERIOR ARPT PTCLDY 61 49 65 N3 30.22R ASHLAND CLEAR 59 51 75 N7 30.22R HAYWARD CLEAR 53 51 93 CALM 30.23R SIREN CLEAR 60 53 77 CALM 30.23R CUMBERLAND NOT AVBL RICE LAKE N/A 58 57 96 CALM 30.23R CHETEK CLEAR 60 57 89 CALM 30.22R LADYSMITH CLEAR 58 58 100 N3 30.23S EAU CLAIRE CLEAR 60 54 80 CALM 30.19R MENOMONIE CLEAR 66 57 71 CALM 30.20S NEW RICHMOND CLEAR 59 54 83 CALM 30.21S OSCEOLA CLEAR 61 60 95 CALM 30.25R $$ WIZ003>005-009-010-017-018-110600- NORTH CENTRAL WISCONSIN CITY SKY/WX TMP DP RH WIND PRES REMARKS MANITOWISH WTR CLEAR 49 49 100 CALM 30.23R ARBOR VITAE CLEAR 53 50 90 N5 30.22R WOODRUFF CLEAR 53 50 90 N5 30.22R RHINELANDER CLEAR 53 50 89 CALM 30.21R EAGLE RIVER CLEAR 51 51 100 CALM 30.22R LAND O LAKES CLEAR 49 49 99 CALM 30.24R PHILLIPS CLEAR 53 53 100 CALM 30.22R TOMAHAWK CLEAR 50 48 92 CALM 30.21S MEDFORD CLEAR 54 54 100 CALM 30.21S MERRILL CLEAR 52 51 97 CALM 30.19S $$ WIZ029-030-035-036-043>047-110600- CENTRAL WISCONSIN CITY SKY/WX TMP DP RH WIND PRES REMARKS WAUSAU CLEAR 64 50 60 CALM 30.18R MOSINEE CLEAR 61 50 67 N5 30.21R MARSHFIELD CLEAR 64 52 64 NE6 30.20R STEVENS POINT PTCLDY 63 51 65 CALM 30.20R WAUPACA PTCLDY 67 53 62 CALM 30.19R WAUTOMA PTCLDY 68 53 58 NE6 30.18R WISC RAPIDS PTCLDY 68 52 56 NE5 30.19R CAMP DOUGLAS PTCLDY 64 59 82 CALM 30.16R $$ WIZ011>013-019>022-031-037>040-048>050-110600- NORTHEAST WISCONSIN CITY SKY/WX TMP DP RH WIND PRES REMARKS ANTIGO CLEAR 52 51 95 CALM 30.20S SHAWANO CLEAR 60 57 87 CALM 30.17S OCONTO NOT AVBL STURGEON BAY CLEAR 66 54 65 NE6 30.16S GREEN BAY PTCLDY 67 60 78 NE6 30.16R MANITOWOC PTCLDY 68 58 70 NE6 30.16R APPLETON PTCLDY 64 55 72 N5 30.16S CLINTONVILLE MOCLDY 63 54 72 CALM 30.19R OSHKOSH PTCLDY 71 59 65 NE12G18 30.16R $$ WIZ032>034-041-042-053>061-110600- SOUTHWEST WISCONSIN CITY SKY/WX TMP DP RH WIND PRES REMARKS LA CROSSE PTCLDY 72 59 63 N7 30.16R SPARTA MOCLDY 67 58 71 N3 30.19R VIROQUA CLOUDY 69 67 91 NE6 30.18S BOSCOBEL MOCLDY 70 69 97 CALM 30.15R PRAIRIE DU CHI MOCLDY 73 67 82 CALM 30.14R PLATTEVILLE CLEAR 70 69 96 W5 30.16S $$ WIZ056-057-062-063-064-067-068-110600- SOUTH CENTRAL WISCONSIN CITY SKY/WX TMP DP RH WIND PRES REMARKS REEDSBURG CLOUDY 71 60 69 NE5 30.17R BARABOO/DELLS CLOUDY 68 58 70 NE8 30.16R LONE ROCK PTCLDY 69 68 96 CALM 30.14R MINERAL POINT MOCLDY 72 68 88 CALM 30.16S MADISON MOCLDY 73 66 78 N6 30.13R MIDDLETON PTCLDY 70 67 90 NW3 30.16R WATERTOWN CLEAR 71 63 76 N5 30.13R MONROE CLEAR 71 65 81 W12 30.14R JANESVILLE MOCLDY 70 68 94 CALM 30.13R $$ WIZ051-052-058>065-066-070>072-110600- SOUTHEAST WISCONSIN CITY SKY/WX TMP DP RH WIND PRES REMARKS MILWAUKEE MOCLDY 77 65 66 N7 30.10R WAUKESHA CLEAR 70 64 83 N8 30.14R MILWAUKEE/TIMM CLEAR 70 61 73 N10G16 30.14R RACINE CLOUDY 75 65 70 W7 30.12R KENOSHA PTCLDY 72 66 81 W7 30.11S FOND DU LAC PTCLDY 71 58 63 NE12 30.16R SHEBOYGAN PTCLDY 68 62 81 NE12 30.15R WEST BEND PTCLDY 68 63 83 NE10 30.15R JUNEAU MOCLDY 69 63 81 N9 30.15R $$ LSZ147-162-110600- LAKE SUPERIOR STATION/POSITION TIME TEMP WIND PRES WAVE AIR SEA DIR/SP/G HT/PER (UTC) (F) (DEG/KT/KT) (MB) (FT/S) W MID LAKE BUOY 0500 350/ 8/ 8 1022.9 DEVILS ISLAND 0500 64 10/ 10/ 11 1023.1R PORT WING 0440 59 160/ 2/ 3 1022.7R SAXON HARBOR 0430 61 90/ 3/ 5 1022.0R $$ LMZ867-665-643>646-110600- LAKE MICHIGAN STATION/POSITION TIME TEMP WIND PRES WAVE AIR SEA DIR/SP/G HT/PER (UTC) (F) (DEG/KT/KT) (MB) (FT/S) CHAMBERS ISLAND 0430 60 CALM / 1 N/A N MID LAKE BUOY 0500 68 10/ 8/ 10 1020.4 NORTHPORT PIER 0400 63 CALM / 1 1021.3 KEWAUNEE LAKESHO 0448 20/ 3/ 6 1019.5R SHEBOYGAN LAKESH 0500 68 20/ 14/ 16 1020.6R PORT WASHINGTON 0440 71 20/ 7/ 16 1021.0R ATWATER BUOY 0500 67 350/ 16/ 17 1021.6 1 MILWAUKEE LAKESH 0500 70 20/ 15/ 16 N/A S MID LAKE BUOY 0500 73 250/ 8/ 10 1018.8 KENOSHA LAKESH 0500 76 270/ 7/ 10 1019.0 $$ TC - TEMPERATURE IN CELSIUS VSB - VISIBILITY IN STATUTE MILES WCI - WIND CHILL INDEX HX - HEAT INDEX ASUS43 KMKX 110559 RWRWI WISCONSIN REGIONAL WEATHER ROUNDUP NATIONAL WEATHER SERVICE MILWAUKEE/SULLIVAN WI 100 AM CDT THU AUG 11 2022 NOTE: "FAIR" INDICATES FEW OR NO CLOUDS BELOW 12,000 FEET WITH NO SIGNIFICANT WEATHER AND/OR OBSTRUCTIONS TO VISIBILITY. WIZ001-002-006>008-014>016-023>028-110700- NORTHWEST WISCONSIN CITY SKY/WX TMP DP RH WIND PRES REMARKS SUPERIOR ARPT PTCLDY 52 50 92 S5 30.23R 6HR MIN TEMP: 51; 6HR MAX TEMP: 76; ASHLAND CLEAR 51 49 92 CALM 30.23R 6HR MIN TEMP: 51; 6HR MAX TEMP: 77; HAYWARD CLEAR 53 50 89 CALM 30.24R 6HR MIN TEMP: 52; 6HR MAX TEMP: 75; SIREN CLEAR 56 52 85 CALM 30.23S 6HR MIN TEMP: 56; 6HR MAX TEMP: 77; CUMBERLAND CLEAR 63 54 72 CALM 30.23 RICE LAKE N/A 57 56 97 CALM 30.23S 6HR MIN TEMP: 56; 6HR MAX TEMP: 79; CHETEK CLEAR 61 58 90 W8 30.22S 6HR MIN TEMP: 60; 6HR MAX TEMP: 78; LADYSMITH CLEAR 56 56 100 CALM 30.24R 6HR MIN TEMP: 56; 6HR MAX TEMP: 75; EAU CLAIRE NOT AVBL MENOMONIE CLEAR 65 57 73 CALM 30.22R 6HR MIN TEMP: 64; 6HR MAX TEMP: 82; NEW RICHMOND CLEAR 59 54 85 CALM 30.23R 6HR MIN TEMP: 57; 6HR MAX TEMP: 78; OSCEOLA CLEAR 60 59 96 CALM 30.25S 6HR MIN TEMP: 60; 6HR MAX TEMP: 83; $$ WIZ003>005-009-010-017-018-110700- NORTH CENTRAL WISCONSIN CITY SKY/WX TMP DP RH WIND PRES REMARKS MANITOWISH WTR CLEAR 48 48 100 CALM 30.23S 6HR MIN TEMP: 48; 6HR MAX TEMP: 72; ARBOR VITAE CLEAR 53 52 94 N3 30.22S 6HR MIN TEMP: 52; 6HR MAX TEMP: 71; WOODRUFF CLEAR 53 52 94 N3 30.22S 6HR MIN TEMP: 52; 6HR MAX TEMP: 71; RHINELANDER CLEAR 53 50 89 CALM 30.22R 6HR MIN TEMP: 52; 6HR MAX TEMP: 72; EAGLE RIVER CLEAR 51 51 100 CALM 30.22S 6HR MIN TEMP: 50; 6HR MAX TEMP: 71; LAND O LAKES CLEAR 49 48 99 CALM 30.24S 6HR MIN TEMP: 48; 6HR MAX TEMP: 71; PHILLIPS CLEAR 52 52 100 CALM 30.22S 6HR MIN TEMP: 51; 6HR MAX TEMP: 73; TOMAHAWK CLEAR 48 47 93 CALM 30.23R 6HR MIN TEMP: 48; 6HR MAX TEMP: 73; MEDFORD CLEAR 53 53 100 CALM 30.21S 6HR MIN TEMP: 53; 6HR MAX TEMP: 75; MERRILL CLEAR 51 50 98 CALM 30.20R 6HR MIN TEMP: 51; 6HR MAX TEMP: 73; $$ WIZ029-030-035-036-043>047-110700- CENTRAL WISCONSIN CITY SKY/WX TMP DP RH WIND PRES REMARKS WAUSAU CLEAR 62 52 69 CALM 30.19R 6HR MIN TEMP: 62; 6HR MAX TEMP: 81; MOSINEE CLEAR 59 50 72 CALM 30.21S MARSHFIELD CLEAR 63 51 65 NE3 30.20S 6HR MIN TEMP: 62; 6HR MAX TEMP: 79; STEVENS POINT PTCLDY 61 51 69 CALM 30.21R 6HR MIN TEMP: 61; 6HR MAX TEMP: 82; WAUPACA PTCLDY 62 56 80 CALM 30.19S 6HR MIN TEMP: 62; 6HR MAX TEMP: 82; WAUTOMA PTCLDY 65 54 67 NE5 30.19R 6HR MIN TEMP: 65; 6HR MAX TEMP: 82; WISC RAPIDS PTCLDY 61 54 77 CALM 30.21R 6HR MIN TEMP: 61; 6HR MAX TEMP: 82; CAMP DOUGLAS CLOUDY 58 56 92 W5 30.18R 6HR MIN TEMP: 58; 6HR MAX TEMP: 78; $$ WIZ011>013-019>022-031-037>040-048>050-110700- NORTHEAST WISCONSIN CITY SKY/WX TMP DP RH WIND PRES REMARKS ANTIGO CLEAR 52 51 95 CALM 30.21R 6HR MIN TEMP: 51; 6HR MAX TEMP: 73; SHAWANO CLEAR 59 57 94 CALM 30.18R 6HR MIN TEMP: 59; 6HR MAX TEMP: 83; OCONTO NOT AVBL STURGEON BAY CLEAR 61 55 81 CALM 30.18R 6HR MIN TEMP: 60; 6HR MAX TEMP: 75; GREEN BAY MOCLDY 63 59 87 CALM 30.17R 6HR MIN TEMP: 63; 6HR MAX TEMP: 83; MANITOWOC PTCLDY 65 59 81 N3 30.17R 6HR MIN TEMP: 65; 6HR MAX TEMP: 79; APPLETON PTCLDY 64 57 77 E3 30.17R CLINTONVILLE PTCLDY 60 55 82 CALM 30.20R 6HR MIN TEMP: 60; 6HR MAX TEMP: 81; OSHKOSH PTCLDY 70 56 61 E10 30.17R 6HR MIN TEMP: 69; 6HR MAX TEMP: 82; $$ WIZ032>034-041-042-053>061-110700- SOUTHWEST WISCONSIN CITY SKY/WX TMP DP RH WIND PRES REMARKS LA CROSSE MOCLDY 73 54 51 NE8 30.17R 6HR MIN TEMP: 71; 6HR MAX TEMP: 86; SPARTA NOT AVBL VIROQUA N/A 69 63 82 NE6 30.20R 6HR MIN TEMP: 69; 6HR MAX TEMP: 81; BOSCOBEL CLOUDY 70 69 97 CALM 30.16R 6HR MIN TEMP: 69; 6HR MAX TEMP: 81; PRAIRIE DU CHI MOCLDY 71 67 85 CALM 30.15R 6HR MIN TEMP: 70; 6HR MAX TEMP: 82; PLATTEVILLE MOCLDY 68 68 100 CALM 30.17R 6HR MIN TEMP: 68; 6HR MAX TEMP: 79; $$ WIZ056-057-062-063-064-067-068-110700- SOUTH CENTRAL WISCONSIN CITY SKY/WX TMP DP RH WIND PRES REMARKS REEDSBURG CLOUDY 70 56 62 NE5 30.18R 6HR MIN TEMP: 70; 6HR MAX TEMP: 81; BARABOO/DELLS MOCLDY 66 56 70 NE5 30.18R 6HR MIN TEMP: 66; 6HR MAX TEMP: 79; LONE ROCK NOT AVBL MINERAL POINT NOT AVBL MADISON PTCLDY 71 61 70 N7 30.15R 6HR MIN TEMP: 70; 6HR MAX TEMP: 81; 6HR PCP: TRACE; MIDDLETON MOCLDY 71 64 79 N7 30.17R 6HR MIN TEMP: 69; 6HR MAX TEMP: 81; WATERTOWN PTCLDY 69 64 82 NE10 30.14R 6HR MIN TEMP: 69; 6HR MAX TEMP: 80; MONROE PTCLDY 71 65 81 W8 30.14S 6HR MIN TEMP: 70; 6HR MAX TEMP: 80; JANESVILLE MOCLDY 70 70 100 CALM 30.13S $$ WIZ051-052-058>065-066-070>072-110700- SOUTHEAST WISCONSIN CITY SKY/WX TMP DP RH WIND PRES REMARKS MILWAUKEE PTCLDY 71 66 84 N12G21 30.12R 6HR MIN TEMP: 71; 6HR MAX TEMP: 85; 6HR PCP: TRACE; WAUKESHA CLEAR 66 63 88 NE9 30.15R MILWAUKEE/TIMM CLOUDY 70 61 73 NE9 30.15R RACINE PTCLDY 71 65 81 N10 30.13R 6HR MIN TEMP: 71; 6HR MAX TEMP: 83; KENOSHA MOCLDY 73 66 78 NW7 30.11S 6HR MIN TEMP: 70; 6HR MAX TEMP: 82; FOND DU LAC PTCLDY 69 55 60 NE9 30.18R 6HR MIN TEMP: 69; 6HR MAX TEMP: 82; SHEBOYGAN PTCLDY 68 60 75 NE10 30.16R 6HR MIN TEMP: 68; 6HR MAX TEMP: 82; 6HR PCP: 0.02; WEST BEND CLEAR 66 61 82 NE7 30.16R JUNEAU CLOUDY 68 63 86 NE7 30.17R 6HR MIN TEMP: 68; 6HR MAX TEMP: 79; $$ LSZ147-162-110700- LAKE SUPERIOR STATION/POSITION TIME TEMP WIND PRES WAVE AIR SEA DIR/SP/G HT/PER (UTC) (F) (DEG/KT/KT) (MB) (FT/S) W MID LAKE BUOY 0540 53 350/ 6/ 8 1023.3R DEVILS ISLAND 0500 64 10/ 10/ 11 1023.1R PORT WING 0530 57 160/ 3/ 4 1023.0S SAXON HARBOR 0540 59 190/ 3/ 7 1022.7R $$ LMZ867-665-643>646-110700- LAKE MICHIGAN STATION/POSITION TIME TEMP WIND PRES WAVE AIR SEA DIR/SP/G HT/PER (UTC) (F) (DEG/KT/KT) (MB) (FT/S) CHAMBERS ISLAND 0530 58 50/ 1/ 2 N/A N MID LAKE BUOY 0540 68 68 350/ 8/ 10 1020.4F NORTHPORT PIER 0500 62 27